Location: *
(51.1248°S, 108.4023°W)
Time: 02:29:57
(UTC+00:00)

Cosmos 1544 - Pass Details

Date: 27 October 2021
Orbit: 467 x 486 km, 82.5° (Epoch: 03 December)

Event Time Altitude Azimuth Distance (km) Brightness Sun altitude
Exits shadow 07:04:57 14° 109° (ESE) 1,441 5.6 -26.0°
Drops below altitude 10° 07:06:18 10° 130° (SE) 1,677 6.3 -26.0°
Sets 07:09:08 0° 154° (SSE) 2,572 7.8 -25.9°
